Weather History for Cincinnati, OH

Change the Weather History Date:

Monday, February 11, 2013

  Actual Average Record
Temperature  
Mean Temperature 46 °F -  
Max Temperature 53 °F 42 °F 75 °F (1999)
Min Temperature 37 °F 24 °F 1 °F (1981)
Degree Days  
Heating Degree Days 19    
Moisture  
Dew Point 35 °F    
Average Humidity 62    
Maximum Humidity 94    
Minimum Humidity 41    
Precipitation  
Precipitation 0.00 in - - ()
Sea Level Pressure  
Sea Level Pressure 29.91 in    
Wind  
Wind Speed 15 mph (SW)    
Max Wind Speed 24 mph    
Max Gust Speed 37 mph    
Visibility 10 miles    
Events      
Averages and records for this station are not official NWS values.
T = Trace of Precipitation, MM = Missing Value Source: NWS Daily Summary

Daily Weather History Graph

Daily Weather History Graph

Search for Another Location

Airport:

Trip Planner

Search our weather history database for the weather conditions in past years. The results will help you decide how hot, cold, wet, or windy it might be!

Date:

Astronomy

Feb. 11, 2013 Rise Set
Actual Time 7:33 AM EST 6:10 PM EST
Civil Twilight 7:06 AM EST 6:38 PM EST
Nautical Twilight 6:34 AM EST 7:09 PM EST
Astronomical Twilight 6:03 AM EST 7:40 PM EST
Moon 7:58 AM EST (2/11) 8:05 PM EST (2/11)
Length of Visible Light 11h 32m
Length of Day
10h 36m
Waxing Crescent, 3% of the Moon is Illuminated
Feb 11
Waxing Crescent
Feb 17
First Quarter
Feb 25
Full
Mar 4
Last Quarter
Mar 11
New

Hourly Weather History & Observations

Time (EST) Temp. Windchill Dew Point Humidity Pressure Visibility Wind Dir Wind Speed Gust Speed Precip Events Conditions
12:53 AM 48.9 °F - 46.9 °F 93% 29.83 in 10.0 mi SSW 6.9 mph - 0.00 in   Overcast
1:33 AM 50.0 °F - 48.2 °F 94% 29.82 in 10.0 mi South 11.5 mph 20.7 mph N/A   Overcast
1:53 AM 50.0 °F - 48.0 °F 93% 29.82 in 10.0 mi South 12.7 mph - N/A   Overcast
2:53 AM 51.1 °F - 48.9 °F 92% 29.80 in 10.0 mi South 12.7 mph - 0.00 in   Mostly Cloudy
3:53 AM 53.1 °F - 48.9 °F 86% 29.79 in 10.0 mi SSW 13.8 mph 20.7 mph N/A   Scattered Clouds
4:53 AM 53.1 °F - 48.0 °F 83% 29.79 in 10.0 mi SSW 17.3 mph 21.9 mph N/A   Partly Cloudy
5:53 AM 52.0 °F - 46.9 °F 83% 29.80 in 10.0 mi SSW 16.1 mph - N/A   Clear
6:53 AM 52.0 °F - 45.0 °F 77% 29.81 in 10.0 mi SW 17.3 mph 27.6 mph N/A   Scattered Clouds
7:53 AM 51.1 °F - 37.9 °F 61% 29.83 in 10.0 mi SW 20.7 mph 31.1 mph N/A   Partly Cloudy
8:53 AM 51.1 °F - 35.1 °F 54% 29.86 in 10.0 mi WSW 18.4 mph 27.6 mph N/A   Partly Cloudy
9:53 AM 50.0 °F - 30.0 °F 46% 29.89 in 10.0 mi WSW 21.9 mph 29.9 mph N/A   Partly Cloudy
10:53 AM 50.0 °F - 30.9 °F 48% 29.91 in 10.0 mi West 24.2 mph 34.5 mph N/A   Clear
11:53 AM 48.9 °F - 28.9 °F 46% 29.94 in 10.0 mi WSW 24.2 mph 36.8 mph N/A   Partly Cloudy
12:53 PM 48.9 °F - 30.0 °F 48% 29.93 in 10.0 mi WSW 24.2 mph 33.4 mph N/A   Partly Cloudy
1:53 PM 50.0 °F - 28.9 °F 44% 29.93 in 10.0 mi WSW 20.7 mph 26.5 mph N/A   Clear
2:53 PM 50.0 °F - 28.0 °F 43% 29.93 in 10.0 mi WSW 23.0 mph 33.4 mph N/A   Clear
3:53 PM 50.0 °F - 27.0 °F 41% 29.95 in 10.0 mi WSW 23.0 mph 31.1 mph N/A   Clear
4:53 PM 48.9 °F - 28.0 °F 44% 29.96 in 10.0 mi West 16.1 mph 29.9 mph N/A   Partly Cloudy
5:53 PM 46.9 °F - 27.0 °F 46% 29.98 in 10.0 mi West 17.3 mph 27.6 mph N/A   Scattered Clouds
6:53 PM 45.0 °F 37.1 °F 27.0 °F 49% 30.01 in 10.0 mi West 19.6 mph 27.6 mph N/A   Mostly Cloudy
7:53 PM 44.1 °F 38.1 °F 27.0 °F 51% 30.03 in 10.0 mi WSW 11.5 mph - N/A   Overcast
8:53 PM 43.0 °F 37.7 °F 27.0 °F 53% 30.04 in 10.0 mi West 9.2 mph - N/A   Mostly Cloudy
9:53 PM 42.1 °F 36.1 °F 27.0 °F 55% 30.06 in 10.0 mi WSW 10.4 mph - N/A   Scattered Clouds
10:53 PM 39.0 °F 32.8 °F 27.0 °F 62% 30.06 in 10.0 mi WSW 9.2 mph - N/A   Clear
11:53 PM 37.9 °F 31.5 °F 27.0 °F 65% 30.09 in 10.0 mi SW 9.2 mph - N/A   Clear